Location: College Rock
(37.2713°N, 119.1740°W)
Time: 13:29:51
(UTC+00:00)

Cosmos 1606 Rocket - Pass Details

Date: 29 October 2020
Orbit: 603 x 631 km, 82.5° (Epoch: 01 December)

Event Time Altitude Azimuth Distance (km) Brightness Sun altitude
Rises 13:14:02 0° 340° (NNW) 2,930 6.8 -13.4°
Reaches altitude 10° 13:16:31 10° 328° (NNW) 2,018 5.8 -12.9°
Maximum altitude 13:20:19 28° 271° (W) 1,198 4.4 -12.2°
Drops below altitude 10° 13:24:05 10° 212° (SSW) 2,003 5.9 -11.5°
Sets 13:26:33 0° 201° (SSW) 2,903 6.9 -11.0°
